Regional Weather Roundup
Issued by NWS

Home | Current Version | Previous Version | Graphics & Text | Print | Product List | Glossary On
Versions: 1 2 3 4 5 6 7 8 9 10 11 12 13 14 15 16 17 18 19 20 21 22 23 24 25 26 27 28 29 30 31 32 33 34 35 36 37 38 39 40 41 42 43 44 45 46 47 48 49 50
000
ASUS44 KMEG 250910
RWRTN
TENNESSEE HOURLY STATE WEATHER ROUNDUP
NATIONAL WEATHER SERVICE MEMPHIS TN
400 AM CDT FRI JUL 25 2014

TNZ002-004-019-021-049-052-054-088>092-251000-
WEST TENNESSEE

CITY           SKY/WX    TMP DP  RH WIND       PRES   REMARKS
MEMPHIS INTL   CLEAR     69  60  73 CALM      30.02R
NWS MEMPHIS      N/A     62 N/A N/A MISG        N/A
JACKSON        CLEAR     60  58  92 CALM      30.04R
DYERSBURG      CLEAR     61  52  72 CALM      30.05R
UNION CITY     CLEAR     59  59 100 CALM      30.04R
PARIS          CLEAR     58  55  89 CALM      30.05R
LEXINGTON      CLEAR     59  57  94 N5        30.02R
SAVANNAH       CLEAR     59  59 100 CALM      30.01S
$$

TNZ008-025-027-028-033-062-065-066-251000-
NORTH MIDDLE TENNESSEE

CITY           SKY/WX    TMP DP  RH WIND       PRES   REMARKS
NASHVILLE      CLEAR     64  58  80 NE6       30.04R
DICKSON        CLEAR     61  55  82 CALM      30.04R
PORTLAND       CLEAR     55  55 100 CALM      30.05R
CLARKSVILLE    CLEAR     58  54  86 N5        30.05R
LEBANON        CLEAR     59  57  92 CALM      30.02R
SMYRNA         CLEAR     60  60 100 CALM      30.05R
MURFREESBORO   CLEAR     64  61  90 CALM      30.03R
COOKEVILLE     MOCLDY    55  55 100 CALM      30.03S VSB 1/4
GALLATIN       CLEAR     61  57  86 CALM      30.05R
CROSSVILLE     FOG       59  57  93 CALM      30.06S VSB 1/4
$$

TNZ061-075-076-078-094-096-097-251000-
SOUTH MIDDLE TENNESSEE

CITY           SKY/WX    TMP DP  RH WIND       PRES   REMARKS
LEWISBURG        N/A     59  57  92 CALM      30.02R VSB 1
FAYETTEVILLE   CLEAR     64  63  94 E12       30.01F
TULLAHOMA      CLEAR     64  61  88 CALM      30.04S
WINCHESTER     CLEAR     61  61 100 CALM      30.02S
MCMINNVILLE    MOCLDY    61  61 100 CALM      30.03S
COLUMBIA       CLEAR     63  63 100 CALM      30.02R
SHELBYVILLE    CLEAR     63  61  94 N3        30.04R
$$

TNZ017-018-042-046-047-251000-
NORTHEAST TENNESSEE

CITY           SKY/WX    TMP DP  RH WIND       PRES   REMARKS
TRI CITIES     CLEAR     60  57  89 CALM      30.05R
ELIZABETHTON   CLOUDY    61  61 100 CALM      30.03R
$$

TNZ012-013-036-069-073-074-251000-
CENTRAL EAST TENNESSEE

CITY           SKY/WX    TMP DP  RH WIND       PRES   REMARKS
KNOXVILLE      CLEAR     63  62  97 NE3       30.02R
OAK RIDGE      MOCLDY    64  61  90 CALM      30.04F
GATLINBURG     PTSUNNY   63  61  94 CALM      30.02S
MORRISTOWN     SUNNY     63  61  94 CALM      30.05S
$$

TNZ083-085-099-251000-
SOUTHEAST TENNESSEE

CITY           SKY/WX    TMP DP  RH WIND       PRES   REMARKS
CHATTANOOGA    CLEAR     67  62  84 CALM      30.02R
$$

SKY/WX REPORTED AS FAIR MEANS FEW OR NO CLOUDS BELOW
12 THOUSAND FEET.




USA.gov is the U.S. government's official web portal to all federal, state and local government web resources and services.